1505872801.1,38552,13.88,73284.5,0.41,-0.33,-0.29,0,*4A
1505872802.29,38553,13.88,73286.0,0.41,-0.29,-0.29,0,*40
1505872803.45,38554,13.88,73282.0,0.43,-0.29,-0.29,0,*45
1505872804.61,38555,13.88,73284.0,0.43,-0.29,-0.29,0,*44
1505872805.8,38556,13.88,73284.8,0.41,-0.29,-0.29,0,*45
1505872806.96,38557,13.88,73286.5,0.43,-0.29,-0.29,0,*46
1505872808.14,38558,13.88,73284.0,0.41,-0.29,-0.29,0,*4B
1505872809.35,38559,13.88,73288.5,0.41,-0.29,-0.27,0,*44
1505872810.52,38560,13.88,73286.5,0.43,-0.29,-0.29,0,*42
1505872811.7,38561,13.88,73286.5,0.41,-0.29,-0.29,0,*41
1505872812.89,38562,13.88,73286.0,0.41,-0.29,-0.29,0,*42
1505872814.05,38563,13.88,73290.0,0.43,-0.29,-0.29,0,*41
1505872815.26,38564,13.88,73286.0,0.41,-0.27,-0.29,0,*4A
1505872816.45,38565,13.88,73290.0,0.41,-0.29,-0.29,0,*45
1505872817.66,38566,13.88,73290.0,0.41,-0.29,-0.27,0,*48
1505872818.82,38567,13.88,73288.3,0.43,-0.29,-0.29,0,*45
1505872819.98,38568,13.88,73286.0,0.43,-0.29,-0.29,0,*4A
1505872821.17,38569,13.88,73284.0,0.41,-0.29,-0.29,0,*49
1505872822.35,38570,13.88,73288.0,0.41,-0.29,-0.29,0,*41
1505872823.52,38571,13.88,73288.8,0.43,-0.29,-0.29,0,*42
1505872824.7,38572,13.88,73290.3,0.41,-0.29,-0.29,0,*43
1505872825.86,38573,13.88,73288.8,0.43,-0.29,-0.29,0,*40
1505872827.05,38574,13.88,73284.8,0.41,-0.29,-0.29,0,*45
1505872828.23,38575,13.88,73288.5,0.41,-0.29,-0.29,0,*44
1505872829.42,38576,13.88,73290.8,0.41,-0.29,-0.29,0,*47
1505872830.6,38577,13.88,73290.3,0.41,-0.29,-0.29,0,*46
1505872831.79,38578,13.88,73290.3,0.41,-0.29,-0.29,0,*49
1505872832.97,38579,13.88,73286.3,0.41,-0.29,-0.29,0,*48
1505872834.15,38580,13.88,73286.8,0.39,-0.33,-0.33,0,*41
1505872835.32,38581,13.88,73286.3,0.39,-0.33,-0.33,0,*40
1505872836.49,38582,13.88,73286.3,0.39,-0.33,-0.33,0,*43
1505872837.66,38583,13.88,73284.5,0.39,-0.33,-0.33,0,*42
1505872838.83,38584,13.88,73282.5,0.39,-0.33,-0.33,0,*45
1505872840.02,38585,13.88,73286.8,0.41,-0.29,-0.29,0,*4B
1505872841.2,38586,13.88,73284.5,0.41,-0.29,-0.29,0,*48
1505872842.42,38587,13.88,73282.3,0.41,-0.29,-0.27,0,*47
1505872843.6,38588,13.88,73286.5,0.41,-0.29,-0.29,0,*46
1505872844.79,38589,13.88,73286.0,0.41,-0.29,-0.29,0,*47
1505872845.98,38590,13.88,73280.5,0.43,-0.29,-0.27,0,*43
1505872847.16,38591,13.88,73284.5,0.41,-0.29,-0.29,0,*4E
1505872848.33,38592,13.88,73282.3,0.39,-0.33,-0.33,0,*42
1505872849.52,38593,13.88,73282.5,0.41,-0.29,-0.29,0,*4C
1505872850.7,38594,13.88,73286.5,0.41,-0.29,-0.29,0,*4B
1505872851.89,38595,13.88,73280.8,0.41,-0.29,-0.29,0,*4A
1505872853.1,38596,13.88,73282.8,0.41,-0.27,-0.29,0,*47
1505872854.31,38597,13.88,73284.8,0.41,-0.29,-0.27,0,*46
1505872855.48,38598,13.88,73282.8,0.39,-0.33,-0.33,0,*48
1505872856.68,38599,13.88,73282.8,0.37,-0.37,-0.37,0,*47
1505872857.86,38600,13.88,73280.0,0.39,-0.33,-0.33,0,*4A
1505872859.07,38601,13.88,73282.5,0.41,-0.29,-0.27,0,*4A
1505872860.25,38602,13.88,73280.3,0.41,-0.29,-0.29,0,*47
1505872861.42,38603,13.88,73282.0,0.39,-0.33,-0.29,0,*42
1505872862.58,38604,13.88,73282.0,0.39,-0.33,-0.29,0,*45
1505872863.76,38605,13.88,73276.5,0.39,-0.37,-0.33,0,*4B
1505872864.93,38606,13.88,73282.5,0.39,-0.33,-0.33,0,*4C
1505872866.1,38607,13.88,73280.8,0.39,-0.33,-0.33,0,*4D
1505872867.27,38608,13.88,73282.5,0.39,-0.33,-0.29,0,*49
1505872868.47,38609,13.88,73278.3,0.37,-0.37,-0.37,0,*4D
1505872869.64,38610,13.88,73282.5,0.39,-0.33,-0.37,0,*4F
1505872870.81,38611,13.88,73280.8,0.39,-0.33,-0.37,0,*4E
1505872872.02,38612,13.88,73284.3,0.37,-0.41,-0.41,0,*47
1505872873.2,38613,13.88,73282.0,0.39,-0.37,-0.37,0,*48
1505872874.37,38614,13.88,73286.0,0.39,-0.37,-0.33,0,*4B
1505872875.54,38615,13.88,73282.3,0.39,-0.33,-0.33,0,*4E
1505872876.72,38616,13.88,73282.8,0.39,-0.33,-0.33,0,*4D
1505872877.89,38617,13.88,73282.5,0.39,-0.33,-0.33,0,*4C
1505872879.06,38618,13.88,73284.0,0.39,-0.33,-0.33,0,*43
1505872880.23,38619,13.88,73282.5,0.39,-0.33,-0.37,0,*46
1505872881.41,38620,13.88,73276.5,0.39,-0.33,-0.37,0,*4C
1505872882.58,38621,13.88,73280.8,0.39,-0.33,-0.33,0,*49
1505872883.78,38622,13.88,73282.8,0.37,-0.37,-0.37,0,*44
1505872884.95,38623,13.88,73280.8,0.39,-0.33,-0.33,0,*4B
1505872886.12,38624,13.88,73276.8,0.39,-0.33,-0.33,0,*4C
1505872887.29,38625,13.88,73282.5,0.39,-0.29,-0.37,0,*42
1505872888.47,38626,13.88,73282.0,0.39,-0.33,-0.37,0,*4A
1505872889.64,38627,13.88,73282.0,0.39,-0.33,-0.33,0,*4F
1505872890.84,38628,13.88,73282.3,0.37,-0.37,-0.37,0,*4E
1505872892.04,38629,13.88,73280.8,0.37,-0.37,-0.37,0,*4F
1505872893.24,38630,13.88,73284.3,0.37,-0.37,-0.37,0,*47
1505872894.41,38631,13.88,73280.3,0.39,-0.33,-0.33,0,*48
1505872895.58,38632,13.88,73282.5,0.39,-0.33,-0.33,0,*4B
1505872896.75,38633,13.88,73282.0,0.39,-0.33,-0.33,0,*4A
1505872897.92,38634,13.88,73280.8,0.39,-0.33,-0.33,0,*4D
1505872899.1,38635,13.88,73286.3,0.39,-0.33,-0.33,0,*4C
1505872900.27,38636,13.88,73280.8,0.39,-0.33,-0.33,0,*4F
1505872901.44,38637,13.88,73282.8,0.39,-0.33,-0.33,0,*4E
1505872902.61,38638,13.88,73280.3,0.39,-0.33,-0.29,0,*4A
1505872903.78,38639,13.88,73280.3,0.39,-0.33,-0.33,0,*40
1505872904.95,38640,13.88,73280.8,0.39,-0.33,-0.33,0,*4E
1505872906.11,38641,13.88,73282.5,0.39,-0.33,-0.29,0,*44
1505872907.29,38642,13.88,73282.8,0.39,-0.33,-0.33,0,*4C
1505872908.49,38643,13.88,73286.3,0.37,-0.41,-0.37,0,*42
1505872909.69,38644,13.88,73282.8,0.37,-0.41,-0.37,0,*45
1505872910.89,38645,13.88,73282.0,0.37,-0.37,-0.37,0,*45
1505872912.07,38646,13.88,73284.0,0.39,-0.37,-0.37,0,*48
1505872913.24,38647,13.88,73284.8,0.39,-0.33,-0.33,0,*49
1505872914.41,38648,13.88,73280.5,0.39,-0.33,-0.33,0,*46
1505872915.61,38649,13.88,73280.5,0.37,-0.37,-0.37,0,*49
1505872916.78,38650,13.88,73280.5,0.39,-0.33,-0.33,0,*4F
1505872917.96,38651,13.88,73286.0,0.39,-0.37,-0.37,0,*4E
1505872919.16,38652,13.88,73286.3,0.37,-0.37,-0.37,0,*43
1505872920.33,38653,13.88,73286.8,0.39,-0.33,-0.33,0,*4C
1505872921.52,38654,13.88,73284.3,0.37,-0.37,-0.29,0,*4A
1505872922.7,38655,13.88,73286.5,0.39,-0.37,-0.37,0,*4A
1505872923.87,38656,13.88,73286.3,0.39,-0.33,-0.33,0,*49
1505872925.05,38657,13.88,73284.0,0.39,-0.37,-0.37,0,*48
1505872926.21,38658,13.94,73288.3,0.39,-0.33,-0.29,0,*4C
1505872927.38,38659,13.88,73284.3,0.39,-0.33,-0.29,0,*4D
1505872928.58,38660,13.88,73284.5,0.37,-0.37,-0.37,0,*42
1505872929.74,38661,13.88,73284.0,0.39,-0.33,-0.29,0,*46
1505872930.94,38662,13.88,73280.3,0.37,-0.37,-0.37,0,*40
1505872932.12,38663,13.88,73286.0,0.39,-0.33,-0.33,0,*4F
1505872933.32,38664,13.88,73284.8,0.37,-0.37,-0.37,0,*46
1505872934.51,38665,13.88,73286.5,0.37,-0.37,-0.37,0,*47
1505872935.71,38666,13.88,73280.5,0.37,-0.37,-0.37,0,*44
1505872936.91,38667,13.88,73286.3,0.37,-0.37,-0.37,0,*45
1505872938.11,38668,13.88,73282.3,0.37,-0.37,-0.33,0,*4E
1505872939.28,38669,13.88,73288.0,0.39,-0.29,-0.33,0,*4E
1505872940.45,38670,13.88,73286.3,0.39,-0.33,-0.33,0,*4D
1505872941.65,38671,13.88,73284.3,0.37,-0.37,-0.37,0,*42
1505872942.82,38672,13.88,73286.0,0.39,-0.33,-0.29,0,*44
1505872943.99,38673,13.88,73282.0,0.39,-0.33,-0.33,0,*4E
1505872945.19,38674,13.88,73282.3,0.37,-0.37,-0.37,0,*47
1505872946.39,38675,13.88,73282.5,0.37,-0.37,-0.33,0,*42
1505872947.56,38676,13.88,73284.8,0.39,-0.33,-0.33,0,*4B
1505872948.76,38677,13.88,73286.8,0.37,-0.37,-0.37,0,*44
1505872949.96,38678,13.88,73288.0,0.37,-0.37,-0.37,0,*4B
1505872951.16,38679,13.88,73288.3,0.37,-0.37,-0.37,0,*4A
1505872952.36,38680,13.88,73288.3,0.37,-0.37,-0.37,0,*4C
1505872953.54,38681,13.88,73284.0,0.39,-0.37,-0.37,0,*43
1505872954.74,38682,13.88,73286.5,0.37,-0.37,-0.37,0,*4E
1505872955.93,38683,13.88,73286.8,0.37,-0.37,-0.37,0,*4F
1505872957.11,38684,13.88,73286.8,0.39,-0.33,-0.37,0,*42
1505872958.31,38685,13.88,73284.3,0.37,-0.37,-0.33,0,*4D
1505872959.51,38686,13.88,73284.8,0.37,-0.37,-0.37,0,*4A
1505872960.7,38687,13.88,73286.3,0.37,-0.37,-0.37,0,*4B
1505872961.9,38688,13.94,73290.0,0.37,-0.37,-0.37,0,*44
1505872963.1,38689,13.88,73284.3,0.37,-0.37,-0.37,0,*45
1505872964.3,38690,13.88,73284.8,0.37,-0.37,-0.37,0,*4D
1505872965.48,38691,13.88,73286.3,0.39,-0.33,-0.33,0,*42
1505872966.65,38692,13.88,73286.0,0.39,-0.33,-0.33,0,*41
1505872967.85,38693,13.88,73286.5,0.37,-0.37,-0.33,0,*4A
1505872969.05,38694,13.88,73284.3,0.37,-0.37,-0.37,0,*49
1505872970.24,38695,13.88,73286.5,0.37,-0.37,-0.33,0,*4C
1505872971.42,38696,13.88,73288.5,0.39,-0.37,-0.37,0,*45
1505872972.59,38697,13.88,73288.5,0.39,-0.33,-0.37,0,*40
1505872973.79,38698,13.88,73290.0,0.37,-0.37,-0.37,0,*45
1505872974.99,38699,13.88,73284.8,0.37,-0.37,-0.37,0,*44
1505872976.19,38700,13.88,73284.3,0.37,-0.37,-0.37,0,*45
1505872977.39,38701,13.88,73284.8,0.37,-0.37,-0.37,0,*44
1505872978.59,38702,13.88,73288.0,0.37,-0.37,-0.37,0,*47
1505872979.76,38703,13.88,73286.8,0.39,-0.33,-0.33,0,*48
1505872980.93,38704,13.88,73284.8,0.39,-0.33,-0.29,0,*44
1505872982.09,38705,13.88,73286.5,0.39,-0.33,-0.29,0,*45
1505872983.29,38706,13.88,73288.0,0.37,-0.37,-0.33,0,*47
1505872984.49,38707,13.88,73284.0,0.37,-0.33,-0.37,0,*46
1505872985.69,38708,13.88,73284.5,0.37,-0.37,-0.37,0,*4D
1505872986.85,38709,13.88,73290.5,0.39,-0.29,-0.29,0,*42
1505872988.05,38710,13.88,73288.8,0.37,-0.37,-0.37,0,*44
1505872989.25,38711,13.88,73286.8,0.37,-0.33,-0.37,0,*41
1505872990.45,38712,13.88,73284.8,0.37,-0.37,-0.33,0,*42
1505872991.65,38713,13.88,73288.8,0.37,-0.37,-0.33,0,*43
1505872992.85,38714,13.88,73286.8,0.37,-0.41,-0.37,0,*41
1505872994.01,38715,13.88,73288.0,0.39,-0.33,-0.29,0,*44
1505872995.21,38716,13.88,73286.5,0.37,-0.37,-0.33,0,*46
1505872996.41,38717,13.88,73286.0,0.37,-0.33,-0.33,0,*43
1505872997.57,38718,13.88,73286.5,0.39,-0.33,-0.29,0,*49
1505872998.77,38719,13.88,73290.3,0.37,-0.37,-0.37,0,*4D
1505872999.94,38720,13.88,73286.5,0.39,-0.29,-0.29,0,*49
1505873001.14,38721,13.88,73286.3,0.37,-0.37,-0.33,0,*42
1505873002.31,38722,13.88,73286.8,0.39,-0.33,-0.33,0,*4B
1505873003.47,38723,13.88,73282.0,0.39,-0.29,-0.29,0,*4A
1505873004.67,38724,13.88,73286.8,0.37,-0.37,-0.33,0,*47
1505873005.87,38725,13.88,73290.8,0.37,-0.37,-0.33,0,*46
1505873007.07,38726,13.88,73286.0,0.37,-0.37,-0.33,0,*45
1505873008.27,38727,13.88,73288.3,0.37,-0.37,-0.33,0,*44
1505873009.46,38728,13.88,73284.8,0.39,-0.33,-0.23,0,*40
1505873010.66,38729,13.88,73284.8,0.37,-0.37,-0.33,0,*4A
1505873011.86,38730,13.88,73286.0,0.37,-0.37,-0.33,0,*42
1505873013.03,38731,13.88,73286.5,0.39,-0.33,-0.33,0,*49
1505873014.2,38732,13.88,73284.3,0.39,-0.29,-0.29,0,*4A
1505873015.39,38733,13.88,73290.3,0.39,-0.29,-0.23,0,*41
1505873016.58,38734,13.88,73290.0,0.37,-0.33,-0.37,0,*46
1505873017.8,38735,13.88,73288.3,0.37,-0.33,-0.27,0,*46
1505873019.0,38736,13.88,73290.3,0.37,-0.37,-0.33,0,*44
1505873020.21,38737,13.88,73292.0,0.37,-0.33,-0.27,0,*44
1505873021.41,38738,13.88,73290.3,0.37,-0.33,-0.33,0,*4E
1505873022.62,38739,13.88,73290.3,0.37,-0.33,-0.27,0,*4A
1505873023.85,38740,13.88,73290.5,0.37,-0.27,-0.33,0,*44
1505873025.01,38741,13.88,73284.5,0.39,-0.29,-0.29,0,*4E
1505873026.21,38742,13.88,73288.3,0.37,-0.33,-0.33,0,*43
1505873027.37,38743,13.88,73288.0,0.39,-0.33,-0.29,0,*47
1505873028.57,38744,13.88,73290.0,0.37,-0.37,-0.33,0,*41
1505873029.77,38745,13.88,73290.8,0.37,-0.33,-0.33,0,*44
1505873030.93,38746,13.88,73290.5,0.39,-0.29,-0.29,0,*49
1505873032.1,38747,13.88,73286.0,0.39,-0.29,-0.29,0,*48
1505873033.29,38748,13.88,73286.3,0.37,-0.33,-0.33,0,*49
1505873034.49,38749,13.88,73290.3,0.37,-0.37,-0.37,0,*48
1505873035.68,38750,13.88,73290.8,0.37,-0.33,-0.33,0,*40
1505873036.88,38751,13.88,73290.0,0.39,-0.29,-0.23,0,*45
1505873038.04,38752,13.88,73290.0,0.39,-0.33,-0.29,0,*47
1505873039.24,38753,13.88,73290.8,0.37,-0.33,-0.33,0,*43
1505873040.4,38754,13.88,73292.0,0.39,-0.33,-0.29,0,*41
1505873041.57,38755,13.88,73290.5,0.39,-0.33,-0.29,0,*40
1505873042.74,38756,13.88,73288.8,0.39,-0.33,-0.29,0,*43
1505873043.91,38757,13.88,73288.5,0.39,-0.29,-0.37,0,*46
1505873045.1,38758,13.88,73286.8,0.37,-0.33,-0.33,0,*48
1505873046.27,38759,13.88,73286.3,0.39,-0.29,-0.29,0,*47
1505873047.43,38760,13.88,73288.5,0.39,-0.29,-0.29,0,*4D
1505873048.62,38761,13.88,73290.0,0.37,-0.29,-0.29,0,*42
1505873049.81,38762,13.88,73288.3,0.37,-0.33,-0.29,0,*4A
1505873051.05,38763,13.88,73290.0,0.37,-0.27,-0.27,0,*40
1505873052.27,38764,13.88,73288.3,0.37,-0.33,-0.27,0,*42
1505873053.44,38765,13.88,73288.3,0.39,-0.29,-0.29,0,*48
1505873054.61,38766,13.88,73286.3,0.39,-0.29,-0.33,0,*40
1505873055.77,38767,13.88,73286.8,0.39,-0.33,-0.29,0,*41
1505873056.97,38768,13.88,73288.3,0.39,-0.33,-0.23,0,*44
1505873058.13,38769,13.88,73286.8,0.39,-0.29,-0.29,0,*44
1505873059.3,38770,13.88,73286.5,0.39,-0.29,-0.29,0,*4C
1505873060.46,38771,13.88,73284.3,0.39,-0.29,-0.29,0,*4D
1505873061.66,38772,13.88,73284.8,0.37,-0.33,-0.37,0,*44
1505873062.82,38773,13.88,73286.5,0.39,-0.33,-0.29,0,*44
1505873064.04,38774,13.88,73286.5,0.39,-0.23,-0.23,0,*48
1505873065.23,38775,13.88,73286.0,0.39,-0.29,-0.23,0,*43
1505873066.43,38776,13.88,73286.8,0.37,-0.33,-0.33,0,*44
1505873067.6,38777,13.88,73288.5,0.39,-0.33,-0.33,0,*4B
1505873068.77,38778,13.88,73290.0,0.39,-0.29,-0.29,0,*44
1505873069.96,38779,13.88,73286.5,0.37,-0.33,-0.37,0,*4F
1505873071.15,38780,13.88,73286.5,0.39,-0.33,-0.23,0,*42
1505873072.37,38781,13.88,73290.5,0.37,-0.33,-0.27,0,*49
1505873073.54,38782,13.88,73290.3,0.39,-0.33,-0.33,0,*41
1505873074.71,38783,13.88,73288.5,0.39,-0.29,-0.33,0,*4B
1505873075.88,38784,13.88,73288.0,0.39,-0.29,-0.29,0,*47
1505873077.07,38785,13.88,73286.5,0.37,-0.33,-0.33,0,*48
1505873078.24,38786,13.88,73286.0,0.39,-0.29,-0.29,0,*45
1505873079.43,38787,13.88,73286.3,0.39,-0.29,-0.23,0,*4E
1505873080.6,38788,13.88,73286.3,0.39,-0.33,-0.29,0,*40
1505873081.79,38789,13.88,73284.3,0.37,-0.33,-0.37,0,*40
1505873082.99,38790,13.88,73284.3,0.37,-0.37,-0.33,0,*48
1505873084.16,38791,13.88,73284.8,0.39,-0.33,-0.29,0,*48
1505873085.33,38792,13.88,73280.8,0.39,-0.29,-0.33,0,*4B
1505873086.53,38793,13.88,73288.3,0.37,-0.37,-0.33,0,*4B
1505873087.69,38794,13.88,73286.0,0.39,-0.29,-0.29,0,*46
1505873088.86,38795,13.88,73282.8,0.39,-0.29,-0.29,0,*47
1505873090.03,38796,13.88,73284.0,0.39,-0.33,-0.33,0,*44
1505873091.23,38797,13.88,73284.5,0.37,-0.33,-0.33,0,*4B
1505873092.39,38798,13.88,73286.3,0.39,-0.33,-0.29,0,*41
1505873093.56,38799,13.88,73282.3,0.39,-0.33,-0.29,0,*40
1505873094.72,38800,13.88,73282.0,0.39,-0.29,-0.29,0,*44
1505873095.89,38801,13.88,73286.0,0.39,-0.29,-0.29,0,*45
1505873097.06,38802,13.88,73284.0,0.39,-0.29,-0.33,0,*4D
1505873098.22,38803,13.88,73284.5,0.39,-0.29,-0.29,0,*47
1505873099.42,38804,13.88,73286.8,0.37,-0.37,-0.33,0,*4A
1505873100.59,38805,13.88,73284.0,0.39,-0.29,-0.29,0,*41
1505873101.75,38806,13.88,73286.8,0.39,-0.33,-0.29,0,*49
1505873102.92,38807,13.88,73288.3,0.39,-0.29,-0.29,0,*43
1505873104.08,38808,13.88,73284.3,0.39,-0.29,-0.29,0,*4C
1505873105.25,38809,13.88,73282.5,0.39,-0.33,-0.29,0,*46
1505873106.42,38810,13.88,73288.3,0.39,-0.29,-0.29,0,*45
1505873107.61,38811,13.88,73284.8,0.39,-0.29,-0.23,0,*4E
1505873108.8,38812,13.88,73286.3,0.37,-0.33,-0.33,0,*49
1505873109.97,38813,13.88,73284.5,0.39,-0.29,-0.29,0,*46
1505873111.17,38814,13.88,73282.8,0.37,-0.37,-0.33,0,*4B
1505873112.33,38815,13.88,73286.3,0.39,-0.29,-0.29,0,*40
1505873113.52,38816,13.88,73286.5,0.39,-0.33,-0.23,0,*42
1505873114.72,38817,13.88,73284.3,0.37,-0.33,-0.37,0,*48
1505873115.91,38818,13.88,73286.3,0.39,-0.33,-0.23,0,*4C
1505873117.08,38819,13.88,73284.0,0.39,-0.29,-0.29,0,*4C
1505873118.24,38820,13.88,73286.3,0.39,-0.29,-0.29,0,*46
1505873119.41,38821,13.88,73286.0,0.39,-0.33,-0.29,0,*4C
1505873120.62,38822,13.88,73286.8,0.37,-0.33,-0.27,0,*4F
1505873121.82,38823,13.88,73282.5,0.37,-0.37,-0.33,0,*4F
1505873122.99,38824,13.88,73288.3,0.39,-0.29,-0.29,0,*42
1505873124.15,38825,13.88,73288.0,0.39,-0.29,-0.29,0,*43
1505873125.32,38826,13.88,73286.3,0.39,-0.29,-0.29,0,*40
1505873126.49,38827,13.88,73282.3,0.39,-0.33,-0.29,0,*4A
1505873127.66,38828,13.88,73284.0,0.39,-0.29,-0.33,0,*45
1505873128.82,38829,13.88,73282.5,0.39,-0.29,-0.29,0,*4F
1505873129.99,38830,13.88,73286.3,0.39,-0.33,-0.37,0,*43
1505873131.16,38831,13.88,73282.3,0.39,-0.29,-0.29,0,*46
1505873132.34,38832,13.88,73282.3,0.39,-0.37,-0.33,0,*41
1505873133.5,38833,13.88,73284.5,0.39,-0.29,-0.29,0,*44
1505873134.67,38834,13.88,73284.8,0.39,-0.33,-0.29,0,*48
1505873135.83,38835,13.88,73284.8,0.39,-0.29,-0.29,0,*42
1505873137.03,38836,13.88,73286.5,0.37,-0.33,-0.33,0,*4F
1505873138.19,38837,13.88,73290.3,0.39,-0.29,-0.29,0,*40
1505873139.36,38838,13.88,73288.8,0.39,-0.29,-0.29,0,*4F
1505873140.55,38839,13.88,73284.0,0.37,-0.33,-0.33,0,*40
1505873141.75,38840,13.88,73284.8,0.37,-0.37,-0.33,0,*4A
1505873142.92,38841,13.88,73288.5,0.39,-0.29,-0.33,0,*4A
1505873144.11,38842,13.88,73288.0,0.39,-0.33,-0.23,0,*43
1505873145.28,38843,13.88,73288.0,0.39,-0.29,-0.29,0,*43
1505873146.46,38844,13.88,73286.8,0.41,-0.29,-0.29,0,*4B
1505873147.63,38845,13.88,73284.0,0.39,-0.33,-0.29,0,*4E
1505873148.8,38846,13.88,73284.0,0.39,-0.33,-0.29,0,*4D
1505873149.96,38847,13.88,73286.8,0.39,-0.29,-0.29,0,*47
1505873151.13,38848,13.88,73288.5,0.39,-0.29,-0.29,0,*48
1505873152.29,38849,13.94,73288.5,0.39,-0.29,-0.29,0,*49
1505873153.46,38850,13.88,73284.8,0.39,-0.33,-0.33,0,*41
1505873154.64,38851,13.88,73288.8,0.39,-0.29,-0.33,0,*4B
1505873155.8,38852,13.88,73286.3,0.39,-0.29,-0.29,0,*43
1505873156.97,38853,13.88,73286.8,0.39,-0.29,-0.29,0,*42
1505873158.14,38854,13.88,73288.3,0.39,-0.33,-0.33,0,*45
1505873159.3,38855,13.88,73290.3,0.39,-0.29,-0.29,0,*44
1505873160.5,38856,13.88,73290.5,0.39,-0.23,-0.29,0,*4D
1505873161.66,38857,13.88,73286.8,0.39,-0.33,-0.29,0,*4D
1505873162.83,38858,13.88,73288.0,0.39,-0.29,-0.29,0,*49
1505873163.99,38859,13.88,73284.5,0.39,-0.29,-0.29,0,*48
1505873165.16,38860,13.88,73286.5,0.39,-0.29,-0.33,0,*49
1505873166.36,38861,13.88,73286.8,0.39,-0.33,-0.23,0,*42
1505873167.55,38862,13.88,73286.0,0.37,-0.37,-0.33,0,*4A
1505873168.75,38863,13.88,73284.0,0.37,-0.33,-0.33,0,*4F
1505873169.92,38864,13.88,73286.5,0.39,-0.29,-0.29,0,*46
1505873171.08,38865,13.88,73286.5,0.39,-0.33,-0.29,0,*4C
1505873172.25,38866,13.88,73288.5,0.39,-0.29,-0.33,0,*4F
1505873173.42,38867,13.88,73286.5,0.39,-0.29,-0.29,0,*45
1505873174.59,38868,13.88,73288.0,0.39,-0.33,-0.37,0,*4E
1505873175.76,38869,13.88,73286.5,0.39,-0.29,-0.29,0,*4B
1505873176.93,38870,13.88,73290.0,0.39,-0.33,-0.33,0,*43
1505873178.09,38871,13.88,73290.8,0.39,-0.29,-0.29,0,*42
1505873179.26,38872,13.88,73290.0,0.39,-0.29,-0.29,0,*41
1505873180.42,38873,13.88,73288.5,0.39,-0.33,-0.29,0,*4B
1505873181.6,38874,13.88,73288.0,0.39,-0.29,-0.33,0,*4C
1505873182.76,38875,13.88,73286.3,0.39,-0.33,-0.29,0,*4D
1505873183.98,38876,13.88,73288.3,0.37,-0.33,-0.27,0,*4E
1505873185.17,38877,13.88,73284.8,0.41,-0.29,-0.19,0,*48
1505873186.33,38878,13.88,73284.5,0.39,-0.29,-0.29,0,*4B
1505873187.53,38879,13.88,73286.5,0.37,-0.37,-0.33,0,*40
1505873188.7,38880,13.88,73288.3,0.39,-0.33,-0.33,0,*4C
1505873189.9,38881,13.88,73286.3,0.37,-0.37,-0.33,0,*47
1505873191.07,38882,13.88,73284.8,0.39,-0.33,-0.29,0,*45
1505873192.23,38883,13.88,73288.3,0.39,-0.29,-0.29,0,*4F
1505873193.41,38884,13.88,73286.8,0.39,-0.33,-0.33,0,*48
1505873194.58,38885,13.88,73290.5,0.39,-0.29,-0.33,0,*42
1505873195.74,38886,13.88,73290.0,0.39,-0.29,-0.29,0,*4A
1505873196.98,38887,13.88,73284.3,0.41,-0.27,-0.27,0,*44
1505873198.18,38888,13.88,73282.8,0.37,-0.33,-0.37,0,*4E
1505873199.35,38889,13.88,73282.8,0.39,-0.33,-0.33,0,*45
1505873200.52,38890,13.88,73282.8,0.39,-0.29,-0.29,0,*4D
1505873201.68,38891,13.88,73284.5,0.39,-0.33,-0.29,0,*47
1505873202.85,38892,13.88,73282.3,0.39,-0.33,-0.33,0,*4F
1505873204.02,38893,13.88,73282.8,0.39,-0.29,-0.33,0,*45
1505873205.19,38894,13.88,73284.5,0.39,-0.29,-0.29,0,*49
1505873206.36,38895,13.88,73282.8,0.39,-0.33,-0.29,0,*43
1505873207.53,38896,13.88,73286.8,0.39,-0.33,-0.37,0,*4F
1505873208.7,38897,13.88,73286.3,0.39,-0.33,-0.33,0,*4A
1505873209.91,38898,13.88,73284.5,0.41,-0.29,-0.27,0,*44
1505873211.08,38899,13.88,73284.5,0.39,-0.29,-0.29,0,*44
1505873212.24,38900,13.88,73286.5,0.39,-0.33,-0.29,0,*4E
1505873213.42,38901,13.88,73286.3,0.39,-0.29,-0.33,0,*4F
1505873214.58,38902,13.88,73280.5,0.39,-0.33,-0.29,0,*4C
1505873215.75,38903,13.88,73278.5,0.39,-0.29,-0.33,0,*4D
1505873216.92,38904,13.88,73286.5,0.39,-0.33,-0.33,0,*41
1505873218.09,38905,13.88,73284.8,0.39,-0.29,-0.29,0,*40
1505873219.26,38906,13.88,73284.8,0.39,-0.33,-0.33,0,*43
1505873220.43,38907,13.88,73286.5,0.39,-0.33,-0.29,0,*49
1505873221.62,38908,13.88,73284.0,0.39,-0.29,-0.23,0,*47
1505873222.78,38909,13.88,73286.3,0.39,-0.29,-0.29,0,*4C
1505873223.96,38910,13.88,73280.8,0.39,-0.33,-0.33,0,*44
1505873225.13,38911,13.88,73282.3,0.39,-0.33,-0.33,0,*45
1505873226.32,38912,13.88,73282.0,0.39,-0.29,-0.23,0,*4C
1505873227.49,38913,13.88,73280.0,0.39,-0.33,-0.29,0,*4C
1505873228.68,38914,13.88,73282.0,0.39,-0.33,-0.23,0,*41
1505873229.88,38915,13.88,73280.8,0.37,-0.37,-0.33,0,*4B
1505873231.05,38916,13.88,73282.8,0.39,-0.29,-0.33,0,*49
1505873232.22,38917,13.88,73280.8,0.39,-0.33,-0.33,0,*43
1505873233.39,38918,13.88,73278.5,0.39,-0.33,-0.29,0,*47
1505873234.58,38919,13.88,73280.0,0.39,-0.33,-0.23,0,*4C
1505873235.77,38920,13.88,73278.8,0.37,-0.33,-0.33,0,*49
1505873236.96,38921,13.88,73280.8,0.39,-0.29,-0.23,0,*4C
1505873238.13,38922,13.88,73278.5,0.39,-0.29,-0.29,0,*45
1505873239.3,38923,13.88,73282.5,0.39,-0.33,-0.29,0,*4F
1505873240.46,38924,13.88,73282.8,0.39,-0.29,-0.29,0,*43
1505873241.63,38925,13.88,73282.0,0.39,-0.29,-0.29,0,*42
1505873242.79,38926,13.88,73282.3,0.39,-0.29,-0.29,0,*41
1505873243.96,38927,13.88,73280.3,0.39,-0.29,-0.29,0,*40
1505873245.15,38928,13.88,73284.5,0.37,-0.33,-0.37,0,*45
1505873246.32,38929,13.88,73282.5,0.39,-0.29,-0.33,0,*45
1505873247.49,38930,13.94,73284.0,0.39,-0.29,-0.29,0,*46
1505873248.65,38931,13.88,73280.5,0.39,-0.29,-0.29,0,*47
1505873249.83,38932,13.88,73280.0,0.39,-0.29,-0.33,0,*4F
1505873250.99,38933,13.88,73280.5,0.39,-0.29,-0.29,0,*45
1505873252.16,38934,13.88,73280.3,0.39,-0.29,-0.29,0,*42
1505873253.32,38935,13.88,73280.0,0.39,-0.29,-0.29,0,*43
1505873254.49,38936,13.88,73282.5,0.39,-0.29,-0.33,0,*4B
1505873255.69,38937,13.88,73282.3,0.37,-0.37,-0.33,0,*4B
1505873256.86,38938,13.88,73282.5,0.39,-0.29,-0.29,0,*4E
1505873258.02,38939,13.88,73282.8,0.39,-0.29,-0.29,0,*4F
1505873259.22,38940,13.88,73280.5,0.37,-0.33,-0.33,0,*4F
1505873260.41,38941,13.88,73280.3,0.39,-0.29,-0.23,0,*4A
1505873261.57,38942,13.88,73280.5,0.39,-0.29,-0.29,0,*43
1505873262.77,38943,13.94,73286.3,0.37,-0.37,-0.33,0,*48
1505873263.94,38944,13.88,73280.0,0.39,-0.29,-0.29,0,*45
1505873265.13,38945,13.88,73280.5,0.37,-0.33,-0.33,0,*4A
1505873266.33,38946,13.88,73282.3,0.37,-0.33,-0.33,0,*49
1505873267.49,38947,13.94,73284.0,0.39,-0.33,-0.29,0,*4D
1505873268.66,38948,13.88,73280.5,0.39,-0.29,-0.29,0,*49
1505873269.85,38949,13.88,73282.0,0.39,-0.29,-0.23,0,*42
1505873271.02,38950,13.88,73280.0,0.39,-0.29,-0.29,0,*40
1505873272.18,38951,13.88,73284.0,0.39,-0.33,-0.29,0,*4A
1505873273.35,38952,13.94,73286.8,0.39,-0.33,-0.33,0,*42
1505873274.52,38953,13.88,73280.5,0.39,-0.29,-0.29,0,*43
1505873275.68,38954,13.88,73284.0,0.39,-0.33,-0.29,0,*4F
1505873276.85,38955,13.88,73284.0,0.39,-0.33,-0.29,0,*4E
1505873278.02,38956,13.88,73280.8,0.39,-0.33,-0.29,0,*4D
1505873279.18,38957,13.88,73286.3,0.39,-0.29,-0.29,0,*47
1505873280.38,38958,13.88,73280.3,0.37,-0.33,-0.33,0,*46
1505873281.57,38959,13.88,73280.3,0.39,-0.29,-0.23,0,*43
1505873282.76,38960,13.88,73282.0,0.39,-0.29,-0.23,0,*49
1505873283.93,38961,13.88,73282.5,0.39,-0.29,-0.29,0,*42
1505873285.09,38962,13.88,73282.5,0.39,-0.33,-0.29,0,*4A
1505873286.29,38963,13.88,73284.0,0.37,-0.37,-0.33,0,*4A
1505873287.46,38964,13.88,73280.3,0.39,-0.29,-0.29,0,*47
1505873288.62,38965,13.88,73280.3,0.39,-0.29,-0.29,0,*46
1505873289.79,38966,13.88,73282.8,0.39,-0.29,-0.29,0,*45
1505873290.99,38967,13.88,73280.3,0.37,-0.37,-0.33,0,*4E
1505873292.15,38968,13.88,73282.0,0.39,-0.33,-0.29,0,*40
1505873293.32,38969,13.88,73282.3,0.39,-0.33,-0.29,0,*41
1505873294.49,38970,13.88,73282.0,0.39,-0.33,-0.33,0,*42
1505873295.65,38971,13.88,73282.0,0.39,-0.29,-0.29,0,*43
1505873296.85,38972,13.88,73280.5,0.39,-0.29,-0.23,0,*4A